Regional Weather Roundup
Issued by NWS

Home | Current Version | Previous Version | Text Only | Print | Product List | Glossary Off
Versions: 1 2 3 4 5 6 7 8 9 10 11 12 13 14 15 16 17 18 19 20 21 22 23 24 25 26 27 28 29 30 31 32 33 34 35 36 37 38 39 40 41 42 43 44 45 46 47 48 49 50

457
ASUS43 KIND 270809
RWRIN

WEATHER ROUNDUP FOR INDIANA
NATIONAL WEATHER SERVICE INDIANAPOLIS IN
400 AM EDT FRI MAY 27 2016

NOTE: "FAIR" INDICATES FEW OR NO CLOUDS BELOW 12,000 FEET WITH NO
SIGNIFICANT WEATHER AND/OR OBSTRUCTIONS TO VISIBILITY.

* - STATION DOES NOT REPORT WEATHER SUCH AS PRECIPITATION OR FOG.

+ - STATION NOT QUALITY CONTROLLED BY THE NATIONAL WEATHER SERVICE.
    USE DATA WITH CAUTION...ESPECIALLY DEWPOINT AND RELATIVE
    HUMIDITY OBSERVATIONS.

INZ001>003-010>013-019-020-270900-
NORTHWEST INDIANA

CITY           SKY/WX    TMP DP  RH WIND       PRES   REMARKS
GARY /AIRPORT/ CLOUDY    70  70 100 S7        29.92S
KNOX *+        MOCLDY    64  59  82 S7        29.95S
LA PORTE +     CLOUDY    68  68 100 SW6       29.95S
MICHIGAN CITY+ MOCLDY    66  64  94 S7        29.94S
MONTICELLO +   MOCLDY    66  61  85 S6        29.96S
RENSSELAER +   CLOUDY    66  63  88 S9        29.94F
VALPARAISO     MOCLDY    67  63  87 S6        29.95R

$$

LMZ046-743>745-270900-
SOUTHERN LAKE MICHIGAN

STATION/POSITION TIME  TEMP    WIND        PRES    WAVE
                       AIR SEA DIR/SP/G            HT
                 (UTC) (F)     (DEG/KT/KT) (MB)    (FT)
BURNS HARBOR     0700   69     190/ 10/ 20 1013.5R
MICHIGAN CITY    0700   69     170/  9/ 11   N/A
5NW MICH CITY    0800   64 59  200/  8/ 10   N/A     1

$$

INZ004-005-014>016-021>024-270900-
NORTH CENTRAL INDIANA

CITY           SKY/WX    TMP DP  RH WIND       PRES   REMARKS
GOSHEN         PTCLDY    67  61  81 S9        29.96R
LOGANSPORT +   CLOUDY    64  61  88 SW7       29.98R
PERU/GRISSOM   CLOUDY    65  64  96 S6        29.97R
ROCHESTER +    CLOUDY    68  64  88 SW9       29.97R
SOUTH BEND     MOCLDY    66  63  90 SW9       29.95R
WARSAW +       CLOUDY    66  63  88 SW3       29.97R

$$

INZ006>009-017-018-025>027-270900-
NORTHEAST INDIANA

CITY           SKY/WX    TMP DP  RH WIND       PRES   REMARKS
ANGOLA *+        N/A     63  54  72 CALM      29.96R
AUBURN +       CLOUDY    66  61  82 SW5       29.98S
FORT WAYNE     CLOUDY    65  61  87 SW8       29.98R
HUNTINGTON +   PTCLDY   N/A N/A N/A SW6       29.97S

$$

INZ028-029-035-036-043>045-051>053-270900-
WEST CENTRAL INDIANA

CITY           SKY/WX    TMP DP  RH WIND       PRES   REMARKS
CRAWFORDSVL +  CLOUDY    63  63 100 CALM      29.97S
GREENCASTLE +  CLOUDY    63  63 100 CALM      29.98F
LAFAYETTE      CLOUDY    65  62  90 SW3       29.95F
TERRE HAUTE    CLOUDY    66  63  90 SE5       29.96F

$$

INZ030>032-037>040-046>048-054>057-064-065-270900-
CENTRAL INDIANA

CITY           SKY/WX    TMP DP  RH WIND       PRES   REMARKS
CP ATTERBURY + CLOUDY    63  61  94 CALM      30.01S FOG
FISHERS *+     CLOUDY    63  63 100 S5        29.99S
FRANKFORT +      N/A     65  64  95 SW3       29.98F
GREENWOOD *+   CLOUDY    64  63  94 SE5       30.00S
INDIANAPOLIS   CLOUDY    65  62  90 S7        29.97S
-EAGLE CREEK   MOCLDY    66  61  84 CALM      29.98S
KOKOMO *+      CLOUDY    66  57  72 SW7       29.98R
MARION +       CLOUDY    63  61  91 S3        29.99S
SHELBYVILLE    MOCLDY    66  63  90 S8        30.00R
ZIONSVILLE +   CLOUDY    64  61  91 S5        29.99S

$$

INZ033-034-041-042-049-050-058-059-270900-
EAST CENTRAL INDIANA

CITY           SKY/WX    TMP DP  RH WIND       PRES   REMARKS
MUNCIE         MOCLDY    66  61  84 S5        30.00R

$$

INZ060-061-067>069-081>083-085>088-270900-
SOUTHWEST INDIANA

CITY           SKY/WX    TMP DP  RH WIND       PRES   REMARKS
EVANSVILLE     CLOUDY    66  62  87 SE5       29.98F
HUNTINGBURG *+ CLOUDY    66  63  88 S6        30.00R
WASHINGTON +   RAIN      65  65 100 SE3       29.97F

$$

INZ062-063-066-070>080-084-089>092-270900-
SOUTH CENTRAL AND SOUTHEAST INDIANA

CITY           SKY/WX    TMP DP  RH WIND       PRES   REMARKS
BEDFORD +      CLOUDY    64  64 100 SE5       29.99S
BLOOMINGTON    PTCLDY    65  62  90 S7        29.99S
MADISON *+     CLEAR     63  61  94 CALM      30.04F
NORTH VERNON + PTCLDY   N/A N/A N/A CALM      30.02S
SEYMOUR +      CLOUDY    64  64 100 CALM      30.00F FOG

$$





USA.gov is the U.S. government's official web portal to all federal, state and local government web resources and services.